Regional Weather Roundup
Issued by NWS Mt. Holly, NJ

Home | Current Version | Previous Version | Text Only | Print | Product List | Glossary On
Versions: 1 2 3 4 5 6 7 8 9 10 11 12 13 14 15 16 17 18 19 20 21 22 23 24 25 26 27 28 29 30 31 32 33 34 35 36 37 38 39 40 41 42 43 44 45 46 47 48 49 50
000
ASUS41 KPHI 262010
RWRPHI

REGIONAL WEATHER ROUNDUP
NATIONAL WEATHER SERVICE MOUNT HOLLY NJ
300 PM EST WED NOV 26 2014

NOTE:  "FAIR" INDICATES FEW OR NO CLOUDS BELOW 12,000 FEET WITH NO
SIGNIFICANT WEATHER AND/OR OBSTRUCTIONS TO VISIBILITY.

 * = STATION DOES NOT REPORT PRECIPITATION (E.G. RAIN, SNOW, ETC.)
        OR FOG.

NJZ015>026-262100-
SOUTHERN NEW JERSEY

CITY           SKY/WX    TMP DP  RH WIND       PRES   REMARKS
POMONA         RAIN      38  37  97 N24G31    29.72F FOG     WCI  27
RIO GRANDE*    CLOUDY    39  36  87 N16G25    29.71F WCI  30
MILLVILLE      LGT RAIN  38  36  92 N15G26    29.77F WCI  29
WRIGHTSTOWN    RAIN      35  35  98 N15       29.80F FOG     WCI  26
MOUNT HOLLY    LGT RAIN  35  33  92 N15G23    29.83F FOG     WCI  25
TRENTON        RAIN      35  32  88 N13G20    29.85R FOG     WCI  26

$$
NJZ001>014-262100-
NORTHERN NEW JERSEY

CITY           SKY/WX    TMP DP  RH WIND       PRES   REMARKS
SUSSEX         SNOW      33  31  92 NE9       29.89F VSB 1/2 WCI  25
ANDOVER*         N/A     33  32  96 VRB3      29.89F
MORRISTOWN     LGT SNOW  34  34 100 NE9       29.89F VSB 1   WCI  26
NEWARK         LGT RAIN  34  33  96 N16       29.88F FOG     WCI  24
TETERBORO      LGTSLEET  34  30  86 N9        29.88F WCI  26
CALDWELL       LGT SNOW  33  30  88 NE6       29.89F FOG     WCI  28
SOMERVILLE     LGT SNOW  34  32  93 N5        29.85F FOG     WCI  30
ALLAIRE*       CLOUDY    37  30  75 N13G21    29.83F WCI  29
TOMS RIVER*    CLOUDY    37  36  93 N8        29.80F WCI  31

$$
PAZ043-044-047-054-055-060>062-066>071-262100-
EASTERN PENNSYLVANIA

CITY           SKY/WX    TMP DP  RH WIND       PRES   REMARKS
PHILADELPHIA   LGT RAIN  37  33  85 N17G28    29.84F WCI  27
NORTH PHILA    RAIN      36  31  82 N14       29.88R WCI  27
BLUE BELL      CLOUDY    36  34  93 N3        29.86S
DOYLESTOWN     LGT SNOW  32  32 100 N9        29.87R FOG     WCI  24
QUAKERTOWN*    CLOUDY    32  32 100 N8        29.89R WCI  25
POTTSTOWN      LGT SNOW  33  31  92 N12       29.89F FOG     WCI  24
LANCASTER      LGT SNOW  33  32  96 N6        29.90F FOG     WCI  28
COATESVILLE    LGT SNOW  32  32 100 N10       29.86F VSB 1   WCI  24
READING        LGT SNOW  34  32  92 N6        29.90F FOG     WCI  29
ALLENTOWN      LGT SNOW  34  32  92 N3        29.92R FOG
MOUNT POCONO   LGT SNOW  31  27  85 N10       29.86R FOG     WCI  22
HAZLETON       LGT SNOW  32  30  93 NW12      29.91S WCI  23
WILKES BARRE   LGT SNOW  33  31  92 VRB5      29.94F VSB 1   WCI  29

$$
DEZALL-MDZ008-012-015-019-020-262100-
DELAWARE AND EASTERN MARYLAND

CITY           SKY/WX    TMP DP  RH WIND       PRES   REMARKS
WILMINGTON     RAIN      36  33  89 N14       29.85F WCI  27
DOVER          LGT RAIN  38  38 100 N17       29.76F WCI  28
GEORGETOWN     LGT RAIN  40  38  93 N10G21    29.75R WCI  33
EASTON         LGT RAIN  39  39 100 N13G18    29.83F WCI  32
PATUXENT       LGT RAIN  40  37  89 N20       29.80F WCI  30
OCEAN CITY     LGT RAIN  42  40  92 N15G24    29.72F
WALLOPS ISLAND LGT RAIN  42  40  92 N13G24    29.71F
CAMBRIDGE      CLOUDY    37  36  93 N13G21    29.76F WCI  29
SALISBURY      RAIN      42  38  85 N13       29.73S FOG

$$
PAZ001-021-NYZ056-072-MDZ011-DCZ001-262100-
OTHER NEARBY LOCATIONS

CITY           SKY/WX    TMP DP  RH WIND       PRES   REMARKS
HARRISBURG     LGT SNOW  34  32  92 NW10      29.94S FOG     WCI  26
STATE COLLEGE  LGT SNOW  32  30  93 NE5       29.97S VSB 3/4 WCI  27
WILLIAMSPORT   LGT SNOW  33  30  88 SW8       29.99S VSB 1   WCI  26
BINGHAMTON     HVY SNOW  30  28  92 N12       29.94F VSB 1/4 WCI  20
NEW YORK CITY  LGT RAIN  36  32  85 NE13G23   29.87F FOG     WCI  27
BALTIMORE      LGT SNOW  34  32  92 NW8       29.88F FOG     WCI  27
WASHINGTON DC  LGT SNOW  37  32  81 NW18G24   29.92R WCI  27

$$


USA.gov is the U.S. government's official web portal to all federal, state and local government web resources and services.